TimePDT,TemperatureF,Dew PointF,Humidity,Sea Level PressureIn,VisibilityMPH,Wind Direction,Wind SpeedMPH,Gust SpeedMPH,PrecipitationIn,Events,Conditions,WindDirDegrees,DateUTC
12:52 AM,62.1,28.0,28,29.91,10.0,NW,6.9,-,N/A,,Clear,310,2012-11-03 07:52:00
1:52 AM,62.1,28.9,29,29.91,10.0,North,6.9,-,N/A,,Clear,10,2012-11-03 08:52:00
2:52 AM,59.0,28.9,32,29.92,10.0,West,3.5,-,N/A,,Clear,270,2012-11-03 09:52:00
3:52 AM,57.0,27.0,32,29.92,10.0,North,5.8,-,N/A,,Clear,350,2012-11-03 10:52:00
4:52 AM,60.1,28.0,30,29.94,10.0,West,3.5,-,N/A,,Clear,260,2012-11-03 11:52:00
5:52 AM,57.0,27.0,32,29.96,10.0,West,3.5,-,N/A,,Clear,270,2012-11-03 12:52:00
6:52 AM,57.0,27.0,32,29.97,10.0,WSW,5.8,-,N/A,,Clear,240,2012-11-03 13:52:00
7:52 AM,61.0,27.0,27,29.99,10.0,WSW,4.6,-,N/A,,Clear,240,2012-11-03 14:52:00
8:52 AM,64.0,27.0,25,30.01,10.0,SSW,3.5,-,N/A,,Clear,210,2012-11-03 15:52:00
9:52 AM,68.0,28.9,23,30.02,10.0,Calm,Calm,-,N/A,,Clear,0,2012-11-03 16:52:00
10:52 AM,73.0,28.9,20,30.02,10.0,Calm,Calm,-,N/A,,Clear,0,2012-11-03 17:52:00
11:52 AM,79.0,32.0,18,30.01,10.0,Calm,Calm,-,N/A,,Clear,0,2012-11-03 18:52:00
12:52 PM,82.0,33.1,17,29.99,10.0,Calm,Calm,-,N/A,,Clear,0,2012-11-03 19:52:00
1:52 PM,84.9,28.0,13,29.96,10.0,Calm,Calm,-,N/A,,Clear,0,2012-11-03 20:52:00
2:52 PM,88.0,26.1,11,29.94,10.0,North,6.9,-,N/A,,Clear,360,2012-11-03 21:52:00
3:52 PM,86.0,33.1,15,29.94,10.0,Calm,Calm,-,N/A,,Clear,0,2012-11-03 22:52:00
4:52 PM,84.9,36.0,17,29.94,10.0,East,4.6,-,N/A,,Clear,90,2012-11-03 23:52:00
5:52 PM,81.0,36.0,20,29.94,10.0,Calm,Calm,-,N/A,,Clear,0,2012-11-04 00:52:00
6:52 PM,79.0,37.0,22,29.96,10.0,Calm,Calm,-,N/A,,Clear,0,2012-11-04 01:52:00
7:52 PM,73.0,34.0,24,29.97,10.0,NNE,4.6,-,N/A,,Clear,20,2012-11-04 02:52:00
8:52 PM,71.1,27.0,19,29.98,10.0,NNW,9.2,-,N/A,,Clear,330,2012-11-04 03:52:00
9:52 PM,71.1,28.0,20,29.99,10.0,WNW,5.8,-,N/A,,Clear,300,2012-11-04 04:52:00
10:52 PM,70.0,30.0,23,30.00,10.0,WSW,6.9,-,N/A,,Clear,250,2012-11-04 05:52:00
11:52 PM,68.0,28.9,23,30.01,10.0,Calm,Calm,-,N/A,,Clear,0,2012-11-04 06:52:00